Sabadell, Spain

4:37 AM CET en Diciembre 13, 2018 (GMT +0100)
Sabadell

Tiempo Historia de LELL - Abril, 2018

Change the Weather History Date:

Lunes, Abril 16, 2018

  Actual Average (LEBL) Record (LEBL)
Temperature  
Temperatura media 58 ° F -  
Temperatura máxima 66 ° F 62 ° F 72 ° F (2016)
Temperatura mínima 51 ° F 49 ° F 42 ° F (1999)
Degree Days  
Grados día de calefacción 6    
Growing Degree Days 8 (Base 50)    
Moisture  
Punto de rocío 51 ° F    
Average Humidity 78    
Maximum Humidity 94    
Minimum Humidity 52    
Precipitación  
Precipitación 0.00 pul - - ()
Presión al nivel del mar  
Presión al nivel del mar 29.96 pul    
Viento  
Velocidad del viento 3 mph ()    
Velocidad máxima del viento 14 mph    
Max Gust Speed -    
Visibilidad 6.1 Millas    
Eventos Lluvia    
Averages and records for this station are not official NWS values.
T = Trace of Precipitation, MM = Missing Value Source: Averaged Metar Reports

Daily Weather History Graph

Daily Weather History Graph

Search for Another Location

Airport or City:

Astronomía

Apr. 16, 2018 Salida Puesta
Hora real 7:10 AM CEST 8:32 PM CEST
Crepúsculo civil 6:41 AM CEST 9:01 PM CEST
Crepúsculo náutico 6:07 AM CEST 9:36 PM CEST
Crepúsculo astronómico 5:30 AM CEST 10:13 PM CEST
Luna 7:44 AM CEST (4/16) 9:04 PM CEST (4/16)
Horas de luz 14h 20m
Horas de luz
13h 22m
Luna nueva, 0% of the Moon is Illuminated
Abr 16
Luna nueva
Abr 22
Cuarto creciente
Abr 30
Luna llena
May 8
Cuarto menguante
May 15
Nueva

Hourly Weather History & Observations

Hora (CEST) Temp. Punto de rocío Humedad Presión Visibilidad Wind Dir Velocidad del viento Velocidad de ráfagas Precip Eventos Condiciones
12:00 AM 59.0 ° F 51.8 ° F 77% 29.92 pul - Sin viento Sin viento - N/A   Despejado
12:30 AM 57.2 ° F 50.0 ° F 77% 29.92 pul - Sin viento Sin viento - N/A   Despejado
1:00 AM 57.2 ° F 50.0 ° F 77% 29.92 pul 6.2 mi Variable 1.2 mph - N/A   Desconocido
1:30 AM 55.4 ° F 48.2 ° F 77% 29.92 pul 6.2 mi ONO 3.5 mph - N/A   Desconocido
2:00 AM 53.6 ° F 50.0 ° F 88% 29.92 pul 6.2 mi ONO 5.8 mph - N/A   Desconocido
2:30 AM 53.6 ° F 50.0 ° F 88% 29.92 pul - Oeste 4.6 mph - N/A   Despejado
3:00 AM 53.6 ° F 50.0 ° F 88% 29.92 pul - ONO 3.5 mph - N/A   Despejado
3:30 AM 51.8 ° F 50.0 ° F 94% 29.92 pul 6.2 mi ONO 5.8 mph - N/A   Desconocido
4:00 AM 51.8 ° F 50.0 ° F 94% 29.89 pul - Oeste 4.6 mph - N/A   Despejado
4:30 AM 51.8 ° F 50.0 ° F 94% 29.89 pul 6.2 mi ONO 3.5 mph - N/A   Desconocido
5:00 AM 51.8 ° F 50.0 ° F 94% 29.89 pul - Variable 1.2 mph - N/A   Despejado
5:30 AM 51.8 ° F 50.0 ° F 94% 29.89 pul - Sin viento Sin viento - N/A   Despejado
6:00 AM 51.8 ° F 50.0 ° F 94% 29.89 pul - Sin viento Sin viento - N/A   Despejado
6:30 AM 53.6 ° F 50.0 ° F 88% 29.89 pul - Sin viento Sin viento - N/A   Despejado
7:00 AM 51.8 ° F 50.0 ° F 94% 29.89 pul - ONO 3.5 mph - N/A   Despejado
8:00 AM 53.6 ° F 50.0 ° F 88% 29.89 pul - Sin viento Sin viento - N/A   Despejado
8:30 AM 53.6 ° F 51.8 ° F 94% 29.89 pul - ONO 1.2 mph - N/A   Despejado
9:00 AM 55.4 ° F 51.8 ° F 88% 29.89 pul - Sin viento Sin viento - N/A   Despejado
9:30 AM 57.2 ° F 51.8 ° F 82% 29.89 pul - Sin viento Sin viento - N/A   Despejado
10:00 AM 59.0 ° F 53.6 ° F 82% 29.92 pul - Variable 1.2 mph - N/A   Despejado
10:30 AM 60.8 ° F 51.8 ° F 72% 29.92 pul - Variable 2.3 mph - N/A   Despejado
11:00 AM 62.6 ° F 51.8 ° F 68% 29.92 pul - SE 4.6 mph - N/A   Despejado
11:30 AM 62.6 ° F 51.8 ° F 68% 29.92 pul - ESE 8.1 mph - N/A   Despejado
12:00 PM 62.6 ° F 51.8 ° F 68% 29.95 pul 6.2 mi ESE 6.9 mph - N/A Lluvia Lluvia débil
12:30 PM 60.8 ° F 53.6 ° F 77% 29.95 pul 5.0 mi SE 5.8 mph - N/A Lluvia Lluvia débil
1:00 PM 60.8 ° F 53.6 ° F 77% 29.95 pul 5.0 mi ESE 5.8 mph - N/A Lluvia Lluvia débil
1:30 PM 62.6 ° F 55.4 ° F 77% 29.95 pul 5.6 mi Variable 2.3 mph - N/A   Desconocido
2:00 PM 66.2 ° F 51.8 ° F 60% 29.95 pul 6.2 mi Este 8.1 mph - N/A   Nubes dispersas
2:30 PM 62.6 ° F 53.6 ° F 72% 29.95 pul 6.2 mi SE 13.8 mph - N/A   Muy nublado
3:30 PM 62.6 ° F 55.4 ° F 77% 29.98 pul - SE 11.5 mph - N/A   Despejado
4:00 PM 62.6 ° F 53.6 ° F 72% 29.98 pul - ESE 10.4 mph - N/A   Despejado
4:30 PM 60.8 ° F 51.8 ° F 72% 29.98 pul 6.2 mi ESE 6.9 mph - N/A   Parcialmente nublado
5:00 PM 62.6 ° F 51.8 ° F 68% 29.98 pul 6.2 mi Este 4.6 mph - N/A   Muy nublado
5:30 PM 62.6 ° F 51.8 ° F 68% 29.98 pul 6.2 mi SE 4.6 mph - N/A   Muy nublado
6:00 PM 62.6 ° F 51.8 ° F 68% 30.01 pul 6.2 mi ESE 5.8 mph - N/A   Parcialmente nublado
6:30 PM 62.6 ° F 51.8 ° F 68% 30.01 pul - SE 3.5 mph - N/A   Despejado
7:00 PM 62.6 ° F 51.8 ° F 68% 30.01 pul - Sin viento Sin viento - N/A   Despejado
7:30 PM 62.6 ° F 50.0 ° F 63% 30.04 pul - Sin viento Sin viento - N/A   Despejado
8:00 PM 64.4 ° F 46.4 ° F 52% 30.04 pul - Sin viento Sin viento - N/A   Despejado
8:30 PM 62.6 ° F 50.0 ° F 63% 30.04 pul - Variable 1.2 mph - N/A   Despejado
9:00 PM 60.8 ° F 51.8 ° F 72% 30.06 pul 6.2 mi SO 1.2 mph - N/A   Parcialmente nublado
9:30 PM 55.4 ° F 50.0 ° F 82% 30.06 pul 6.2 mi ONO 3.5 mph - N/A   Desconocido
10:00 PM 55.4 ° F 50.0 ° F 82% 30.06 pul 6.2 mi ONO 4.6 mph - N/A   Desconocido
10:30 PM 57.2 ° F 50.0 ° F 77% 30.09 pul 6.2 mi NO 3.5 mph - N/A   Desconocido
11:00 PM 55.4 ° F 50.0 ° F 82% 30.09 pul 6.2 mi Variable 1.2 mph - N/A   Desconocido
11:30 PM 53.6 ° F 48.2 ° F 82% 30.09 pul 6.2 mi Variable 1.2 mph - N/A   Desconocido